Time,TemperatureF,DewpointF,PressureIn,WindDirection,WindDirectionDegrees,WindSpeedMPH,WindSpeedGustMPH,Humidity,HourlyPrecipIn,Conditions,Clouds,dailyrainin,SoftwareType,DateUTC
2013-09-05 00:24:00,76.0,70.0,30.06,ESE,117,4.0,6.0,82,-99.99,,,-99.99,,2013-09-05 04:24:00,
2013-09-05 01:23:00,75.0,71.0,30.06,South,189,1.0,3.0,86,-99.99,,,-99.99,,2013-09-05 05:23:00,
2013-09-05 01:43:00,73.0,70.0,30.05,ESE,108,4.0,8.0,90,-99.99,,,-99.99,,2013-09-05 05:43:00,
2013-09-05 01:52:00,73.0,69.0,30.04,ENE,62,5.0,8.0,88,-99.99,,,-99.99,,2013-09-05 05:52:00,
2013-09-05 02:02:00,73.0,69.0,30.04,ENE,62,5.0,8.0,88,-99.99,,,-99.99,,2013-09-05 06:02:00,
2013-09-05 02:22:00,73.0,69.0,30.03,ENE,62,3.0,6.0,86,-99.99,,,-99.99,,2013-09-05 06:22:00,
2013-09-05 02:42:00,74.0,70.0,30.02,NE,51,6.0,9.0,85,-99.99,,,-99.99,,2013-09-05 06:42:00,
2013-09-05 02:52:00,75.0,70.0,30.03,NE,48,4.0,7.0,85,-99.99,,,-99.99,,2013-09-05 06:52:00,
2013-09-05 03:02:00,75.0,70.0,30.03,NE,48,4.0,7.0,85,-99.99,,,-99.99,,2013-09-05 07:02:00,
2013-09-05 03:23:00,74.0,70.0,30.03,ENE,68,3.0,5.0,87,-99.99,,,-99.99,,2013-09-05 07:23:00,
2013-09-05 03:42:00,75.0,71.0,30.02,NE,35,5.0,8.0,86,-99.99,,,-99.99,,2013-09-05 07:42:00,
2013-09-05 03:52:00,76.0,72.0,30.03,SE,131,6.0,9.0,86,-99.99,,,-99.99,,2013-09-05 07:52:00,
2013-09-05 04:03:00,76.0,72.0,30.03,SE,131,6.0,9.0,86,-99.99,,,-99.99,,2013-09-05 08:03:00,
2013-09-05 04:22:00,76.0,69.0,30.03,ESE,119,7.0,9.0,78,-99.99,,,-99.99,,2013-09-05 08:22:00,
2013-09-05 04:32:00,76.0,69.0,30.03,ESE,119,7.0,9.0,78,-99.99,,,-99.99,,2013-09-05 08:32:00,
2013-09-05 04:52:00,76.0,71.0,30.04,West,267,6.0,8.0,82,-99.99,,,-99.99,,2013-09-05 08:52:00,
2013-09-05 05:03:00,76.0,71.0,30.04,West,267,6.0,8.0,82,-99.99,,,-99.99,,2013-09-05 09:03:00,
2013-09-05 05:22:00,76.0,72.0,30.04,ENE,67,5.0,7.0,85,-99.99,,,-99.99,,2013-09-05 09:22:00,
2013-09-05 05:43:00,76.0,72.0,30.03,NNE,30,6.0,10.0,85,-99.99,,,-99.99,,2013-09-05 09:43:00,
2013-09-05 05:54:00,75.0,71.0,30.03,NE,45,5.0,7.0,87,-99.99,,,-99.99,,2013-09-05 09:54:00,
2013-09-05 06:03:00,75.0,71.0,30.03,NE,45,5.0,7.0,87,-99.99,,,-99.99,,2013-09-05 10:03:00,
2013-09-05 06:23:00,74.0,71.0,30.04,NE,46,3.0,6.0,88,-99.99,,,-99.99,,2013-09-05 10:23:00,
2013-09-05 06:30:00,76.0,72.0,30.05,SE,141,5.0,6.0,88,-99.99,,,-99.99,,2013-09-05 10:30:00,
2013-09-05 06:43:00,76.0,72.0,30.04,East,90,6.0,9.0,88,-99.99,,,-99.99,,2013-09-05 10:43:00,
2013-09-05 06:53:00,76.0,72.0,30.05,SE,141,5.0,6.0,88,-99.99,,,-99.99,,2013-09-05 10:53:00,
2013-09-05 07:03:00,76.0,72.0,30.05,SE,141,5.0,6.0,88,-99.99,,,-99.99,,2013-09-05 11:03:00,
2013-09-05 07:12:00,76.0,72.0,30.05,SE,141,5.0,6.0,88,-99.99,,,-99.99,,2013-09-05 11:12:00,
2013-09-05 07:22:00,76.0,72.0,30.05,SE,141,5.0,6.0,88,-99.99,,,-99.99,,2013-09-05 11:22:00,
2013-09-05 07:52:00,74.0,70.0,30.05,ENE,64,2.0,4.0,89,-99.99,,,-99.99,,2013-09-05 11:52:00,
2013-09-05 08:01:00,74.0,70.0,30.05,ENE,64,2.0,4.0,89,-99.99,,,-99.99,,2013-09-05 12:01:00,
2013-09-05 08:22:00,74.0,70.0,30.06,East,83,2.0,5.0,89,-99.99,,,-99.99,,2013-09-05 12:22:00,
2013-09-05 08:42:00,74.0,70.0,30.06,ENE,60,3.0,5.0,88,-99.99,,,-99.99,,2013-09-05 12:42:00,
2013-09-05 08:52:00,76.0,71.0,30.07,ENE,68,5.0,8.0,85,-99.99,,,-99.99,,2013-09-05 12:52:00,
2013-09-05 09:02:00,76.0,71.0,30.07,ENE,68,5.0,8.0,85,-99.99,,,-99.99,,2013-09-05 13:02:00,
2013-09-05 09:22:00,78.0,73.0,30.07,ENE,69,4.0,7.0,86,-99.99,,,-99.99,,2013-09-05 13:22:00,
2013-09-05 09:42:00,78.0,74.0,30.07,NE,48,6.0,8.0,86,-99.99,,,-99.99,,2013-09-05 13:42:00,
2013-09-05 09:53:00,79.0,75.0,30.07,NE,40,5.0,7.0,86,-99.99,,,-99.99,,2013-09-05 13:53:00,
2013-09-05 10:02:00,79.0,75.0,30.07,NE,40,5.0,7.0,86,-99.99,,,-99.99,,2013-09-05 14:02:00,
2013-09-05 10:22:00,80.0,75.0,30.07,NE,45,5.0,9.0,86,-99.99,,,-99.99,,2013-09-05 14:22:00,
2013-09-05 10:32:00,80.0,75.0,30.07,NE,45,5.0,9.0,86,-99.99,,,-99.99,,2013-09-05 14:32:00,
2013-09-05 10:42:00,80.0,75.0,30.07,NE,45,5.0,9.0,86,-99.99,,,-99.99,,2013-09-05 14:42:00,
2013-09-05 12:54:00,87.0,75.0,30.05,East,91,4.0,8.0,67,-99.99,,,-99.99,,2013-09-05 16:54:00,
2013-09-05 13:12:00,88.0,75.0,30.05,SE,125,4.0,8.0,64,-99.99,,,-99.99,,2013-09-05 17:12:00,
2013-09-05 13:23:00,88.0,75.0,30.04,East,90,4.0,9.0,65,-99.99,,,-99.99,,2013-09-05 17:23:00,
2013-09-05 13:34:00,88.0,75.0,30.04,East,90,4.0,9.0,65,-99.99,,,-99.99,,2013-09-05 17:34:00,
2013-09-05 13:52:00,88.0,75.0,30.04,NW,306,3.0,5.0,66,-99.99,,,-99.99,,2013-09-05 17:52:00,
2013-09-05 14:12:00,87.0,75.0,30.03,NNW,332,4.0,6.0,66,-99.99,,,-99.99,,2013-09-05 18:12:00,
2013-09-05 14:52:00,88.0,75.0,30.02,WNW,286,4.0,7.0,65,-99.99,,,-99.99,,2013-09-05 18:52:00,
2013-09-05 15:11:00,88.0,74.0,30.01,West,274,4.0,6.0,64,-99.99,,,-99.99,,2013-09-05 19:11:00,
2013-09-05 15:52:00,88.0,76.0,30.00,WNW,285,6.0,8.0,67,-99.99,,,-99.99,,2013-09-05 19:52:00,
2013-09-05 16:11:00,87.0,77.0,30.00,NE,43,9.0,14.0,71,-99.99,,,-99.99,,2013-09-05 20:11:00,
2013-09-05 16:22:00,86.0,76.0,29.99,NE,34,6.0,10.0,72,-99.99,,,-99.99,,2013-09-05 20:22:00,
2013-09-05 16:52:00,88.0,77.0,29.98,NNW,332,4.0,6.0,68,-99.99,,,-99.99,,2013-09-05 20:52:00,
2013-09-05 17:12:00,88.0,76.0,29.98,NW,325,4.0,5.0,65,-99.99,,,-99.99,,2013-09-05 21:12:00,
2013-09-05 17:54:00,85.0,76.0,29.97,South,171,8.0,11.0,74,-99.99,,,-99.99,,2013-09-05 21:54:00,
2013-09-05 18:13:00,86.0,77.0,29.98,NE,37,7.0,9.0,74,-99.99,,,-99.99,,2013-09-05 22:13:00,
2013-09-05 18:53:00,86.0,76.0,29.99,East,80,4.0,8.0,71,-99.99,,,-99.99,,2013-09-05 22:53:00,
2013-09-05 19:12:00,86.0,75.0,29.99,ESE,109,6.0,37.0,70,-99.99,,,-99.99,,2013-09-05 23:12:00,
2013-09-05 19:53:00,80.0,71.0,30.00,WSW,242,4.0,9.0,72,-99.99,,,-99.99,,2013-09-05 23:53:00,
2013-09-05 20:12:00,79.0,69.0,29.99,West,259,3.0,5.0,71,-99.99,,,-99.99,,2013-09-06 00:12:00,
2013-09-05 20:22:00,78.0,69.0,30.02,West,265,4.0,8.0,73,-99.99,,,-99.99,,2013-09-06 00:22:00,
2013-09-05 20:33:00,78.0,69.0,30.02,West,265,4.0,8.0,73,-99.99,,,-99.99,,2013-09-06 00:33:00,
2013-09-05 20:52:00,78.0,68.0,30.02,WNW,282,3.0,4.0,72,-99.99,,,-99.99,,2013-09-06 00:52:00,
2013-09-05 21:11:00,78.0,69.0,30.02,WNW,288,3.0,4.0,73,-99.99,,,-99.99,,2013-09-06 01:11:00,
2013-09-05 21:52:00,78.0,71.0,30.04,SW,221,2.0,3.0,79,-99.99,,,-99.99,,2013-09-06 01:52:00,
2013-09-05 22:12:00,77.0,71.0,30.04,SSW,204,3.0,5.0,83,-99.99,,,-99.99,,2013-09-06 02:12:00,
2013-09-05 22:22:00,76.0,71.0,30.04,South,186,3.0,4.0,83,-99.99,,,-99.99,,2013-09-06 02:22:00,
2013-09-05 22:32:00,76.0,71.0,30.04,South,186,3.0,4.0,83,-99.99,,,-99.99,,2013-09-06 02:32:00,
2013-09-05 22:52:00,75.0,71.0,30.05,SE,138,2.0,3.0,87,-99.99,,,-99.99,,2013-09-06 02:52:00,
2013-09-05 23:02:00,75.0,71.0,30.05,SE,138,2.0,3.0,87,-99.99,,,-99.99,,2013-09-06 03:02:00,
2013-09-05 23:22:00,75.0,71.0,30.04,ESE,103,1.0,2.0,87,-99.99,,,-99.99,,2013-09-06 03:22:00,
2013-09-05 23:34:00,75.0,71.0,30.04,ESE,103,1.0,2.0,87,-99.99,,,-99.99,,2013-09-06 03:34:00,
2013-09-05 23:55:00,75.0,71.0,30.04,SSE,161,1.0,3.0,87,-99.99,,,-99.99,,2013-09-06 03:55:00,